Location: *
(34.6780°N, 135.8310°E)
Time: 23:55:43
(UTC+00:00)

Cosmos 1953 - Pass Details

Date: 18 October 2019
Orbit: 538 x 559 km, 82.5° (Epoch: 15 November)

Event Time Altitude Azimuth Distance (km) Brightness Sun altitude
Rises 19:20:13 0° 1° (N) 2,729 5.9 -22.3°
Reaches altitude 10° 19:22:29 10° 8° (N) 1,828 5.1 -21.8°
Maximum altitude 19:26:19 43° 80° (E) 770 3.5 -21.0°
Drops below altitude 10° 19:30:07 10° 153° (SSE) 1,803 5.2 -20.2°
Sets 19:32:20 0° 160° (SSE) 2,688 6.1 -19.8°
